Espace membre
Imprimable
Challenges > Delhalle - Bousval, 06/03/2016, BEL - Le Cross de Bousval
Liste des rapports > 10 km - Classement
Recherche: Page: [1]
22 Entrées
 
Les réclamations ne sont plus acceptées, les résultats sont considérés comme définitifs.
RangNrNomAgeIOCLigueEquipeRéelTempsTkmMoy.ScrLocalité
1.9207FCAPRON CATHERINE42BEL58:1858:305:51 10.2635MONTIGNY LE TILLEUL
2.9162FSIMON FLORENCE45BEL58:5159:045:55 10.1640
3.3691FVLAMINCK NATACHA43BEL1:01:071:01:256:09 9.7749WAVRE
4.9237FSTERCKX FABIENNE48BELJC HSH1:02:211:02:246:15 9.6257
5.9163FBLATTER NATHALIE43BEL1:04:381:04:476:29 9.2664
6.9127FWOCILLARO CATHERINE42BEL1:05:301:05:486:35 9.1267
7.9142FCHELLI YARIA47BEL1:05:471:06:016:37 9.0969
8.9223FVERSAILLES ELISABETH44BELRIWARIWA1:07:231:07:316:46 8.8975
9.9190FSIBILLE CECILE46BELUACUAC1:08:111:08:316:52 8.7680
10.9154FMUVETTE DEBORAH43BEL1:08:401:08:406:52 8.7481
11.9209FDEHAYE ANNE45BELJAMESJAMES1:09:411:09:476:59 8.6084
12.9141FBERTRAND CECILE45BEL1:10:251:10:297:03 8.5186
13.9231FCERINI CARLA49BELESM1:10:351:10:477:05 8.4887
14.9181FDEBUSSCHER ANNE49BEL1:12:091:12:257:15 8.2993BRUXELLES
15.9205FGODECHOUL CHRISTINE45BEL1:12:211:12:317:16 8.2794
16.9184FHOOGSTEYN FRÉDÉRIQUE44BELCLINIQUE ST JEAN1:12:211:12:327:16 8.2795LOUPOIGNE
17.9194FDOHET AGNES49BELUACUAC1:12:131:12:327:16 8.2796
18.9204FCATTIN CELINE40BELMYSTERE1:13:101:13:287:21 8.17101
19.9182FDEWULF ERIKA45BEL1:13:531:14:117:26 8.09103SAUVAGEMONT (LASNE)
20.9236FGRANDMONT ANITA49NLDJCPMF GENAPPE1:14:591:15:147:32 7.98105BOUSVAL
21.9193FFREVILLE ELSA44FRA1:19:331:19:538:00 7.51110WOLUWÉ ST LAMBERT
22.9139FVALLE RAMIREZ MARIA45BELJOGGANS1:25:541:26:088:37 6.97114
DNF: abandon; DSQ: disqualifié; Vitesse en km/h
Page: [1]